Weather History for Punta Gorda, FL

Change the Weather History Date:

Tuesday, September 17, 2013

  Actual Average Record
Temperature  
Mean Temperature 81 °F -  
Max Temperature 90 °F 87 °F 95 °F (2005)
Min Temperature 73 °F 71 °F 68 °F (2001)
Cooling Degree Days 16    
Growing Degree Days 31 (Base 50)    
Moisture  
Dew Point 73 °F    
Average Humidity 85    
Maximum Humidity 96    
Minimum Humidity 63    
Precipitation  
Precipitation 0.00 in - - ()
Sea Level Pressure  
Sea Level Pressure 30.01 in    
Wind  
Wind Speed 7 mph (ENE)    
Max Wind Speed 14 mph    
Max Gust Speed 21 mph    
Visibility 10 miles    
Events      
Averages and records for this station are not official NWS values.
T = Trace of Precipitation, MM = Missing Value Source: NWS Daily Summary

Daily Weather History Graph

Daily Weather History Graph

Search for Another Location

Airport:

Trip Planner

Search our weather history database for the weather conditions in past years. The results will help you decide how hot, cold, wet, or windy it might be!

Date:

Astronomy

Sep. 17, 2013 Rise Set
Actual Time 7:14 AM EDT 7:29 PM EDT
Civil Twilight 6:51 AM EDT 7:53 PM EDT
Nautical Twilight 6:24 AM EDT 8:20 PM EDT
Astronomical Twilight 5:56 AM EDT 8:47 PM EDT
Moon 6:11 PM EDT (9/17) 5:15 AM EDT (9/17)
Length of Visible Light 13h 01m
Length of Day
12h 15m
Waxing Gibbous, 96% of the Moon is Illuminated
Sep 17
Waxing Gibbous
Sep 19
Full
Sep 26
Last Quarter
Oct 4
New
Oct 11
First Quarter

Hourly Weather History & Observations

Time (EDT) Temp. Heat Index Dew Point Humidity Pressure Visibility Wind Dir Wind Speed Gust Speed Precip Events Conditions
12:53 AM 73.9 °F - 72.0 °F 93% 30.03 in 10.0 mi NE 4.6 mph - N/A   Clear
1:53 AM 73.0 °F - 72.0 °F 96% 30.02 in 10.0 mi Calm Calm - N/A   Mostly Cloudy
2:00 AM 73.4 °F - 71.6 °F 94% 30.01 in 10.0 mi ENE 3.5 mph - N/A   Scattered Clouds
2:53 AM 73.0 °F - 72.0 °F 96% 30.00 in 10.0 mi NE 5.8 mph - N/A   Partly Cloudy
3:53 AM 73.0 °F - 72.0 °F 96% 30.00 in 10.0 mi NE 5.8 mph - N/A   Clear
4:53 AM 73.0 °F - 72.0 °F 96% 30.00 in 10.0 mi NNE 5.8 mph - N/A   Clear
5:53 AM 73.0 °F - 72.0 °F 96% 30.01 in 10.0 mi NNE 3.5 mph - N/A   Clear
6:29 AM 73.4 °F - 71.6 °F 94% 30.02 in 10.0 mi NE 5.8 mph - N/A   Mostly Cloudy
6:53 AM 73.0 °F - 72.0 °F 96% 30.02 in 10.0 mi NE 5.8 mph - N/A   Partly Cloudy
7:53 AM 73.9 °F - 72.0 °F 93% 30.04 in 10.0 mi NNE 8.1 mph - N/A   Clear
8:53 AM 78.1 °F - 73.9 °F 87% 30.05 in 10.0 mi ENE 6.9 mph - N/A   Clear
9:53 AM 82.9 °F 90.2 °F 75.0 °F 77% 30.05 in 10.0 mi ENE 10.4 mph - N/A   Partly Cloudy
10:36 AM 84.2 °F 92.3 °F 75.2 °F 74% 30.06 in 10.0 mi East 11.5 mph - N/A   Mostly Cloudy
10:43 AM 84.2 °F 92.3 °F 75.2 °F 74% 30.06 in 10.0 mi ENE 10.4 mph - N/A   Scattered Clouds
10:51 AM 84.2 °F 92.3 °F 75.2 °F 74% 30.06 in 10.0 mi ENE 9.2 mph - N/A   Mostly Cloudy
10:53 AM 84.0 °F 91.9 °F 75.0 °F 74% 30.06 in 10.0 mi ENE 8.1 mph - N/A   Scattered Clouds
11:53 AM 86.0 °F 93.8 °F 73.9 °F 67% 30.05 in 10.0 mi ENE 10.4 mph - N/A   Mostly Cloudy
12:53 PM 86.0 °F 93.8 °F 73.9 °F 67% 30.04 in 10.0 mi ENE 10.4 mph - N/A   Mostly Cloudy
1:53 PM 89.1 °F 99.1 °F 75.0 °F 63% 30.00 in 10.0 mi NNE 13.8 mph - N/A   Mostly Cloudy
2:53 PM 79.0 °F - 75.0 °F 88% 30.00 in 10.0 mi ESE 9.2 mph - N/A   Overcast
3:53 PM 81.0 °F 86.7 °F 75.0 °F 82% 30.00 in 10.0 mi SE 10.4 mph - N/A   Overcast
4:14 PM 78.8 °F - 73.4 °F 83% 29.99 in 10.0 mi SSE 11.5 mph 20.7 mph N/A   Overcast
4:31 PM 78.8 °F - 73.4 °F 83% 29.99 in 10.0 mi South 9.2 mph - N/A   Scattered Clouds
4:53 PM 78.1 °F - 73.0 °F 84% 29.99 in 10.0 mi SE 3.5 mph - N/A   Clear
5:53 PM 78.1 °F - 73.0 °F 84% 29.98 in 10.0 mi East 5.8 mph - N/A   Clear
6:30 PM 78.8 °F - 73.4 °F 83% 29.98 in 10.0 mi NE 12.7 mph 18.4 mph N/A   Mostly Cloudy
6:44 PM 77.0 °F - 71.6 °F 83% 29.98 in 10.0 mi ENE 12.7 mph - N/A   Mostly Cloudy
6:53 PM 77.0 °F - 72.0 °F 84% 29.98 in 10.0 mi ENE 12.7 mph - N/A   Partly Cloudy
7:53 PM 75.9 °F - 72.0 °F 87% 29.96 in 10.0 mi NE 10.4 mph - N/A   Clear
8:53 PM 75.0 °F - 72.0 °F 90% 30.00 in 10.0 mi ENE 5.8 mph - N/A   Partly Cloudy
9:53 PM 75.0 °F - 72.0 °F 90% 30.02 in 10.0 mi East 5.8 mph - N/A   Clear
10:53 PM 75.0 °F - 73.0 °F 94% 30.02 in 10.0 mi ENE 5.8 mph - N/A   Partly Cloudy
11:53 PM 75.0 °F - 73.0 °F 94% 30.01 in 10.0 mi Calm Calm - N/A   Clear